Weather Roundup
Issued by NWS Corpus Christi, TX

Home | Current Version | Previous Version | Text Only | Print | Product List | Glossary On
Versions: 1 2 3 4 5 6 7 8 9 10 11 12 13 14 15 16 17 18 19 20 21 22 23 24 25 26 27 28 29 30 31 32 33 34 35 36 37 38 39 40 41 42 43 44 45 46 47 48 49 50
000
ASUS44 KCRP 150510
HRRCRP

SOUTH TEXAS REGIONAL WEATHER ROUNDUP
NATIONAL WEATHER SERVICE CORPUS CHRISTI TX
1100 PM CST THU DEC 14 2017


TXZ229>244-150600-
...CORPUS CHRISTI AREA OBSERVATIONS...

CITY           SKY/WX    TMP DP  RH WIND       PRES   REMARKS
CORPUS CHRISTI LGT RAIN  58  47  66 N14       30.06R
NAS CORPUS CHR CLOUDY    61  52  72 N17       30.05R
ROCKPORT       CLOUDY    57  47  69 N13       30.07R
KINGSVILLE ARP CLOUDY    60  51  70 N8        30.08R
KINGSVILLE NAS LGT RAIN  60  50  69 N10       30.06R
ALICE          CLOUDY    57  45  64 N8        30.08R
$$

...VICTORIA AREA OBSERVATIONS...

CITY           SKY/WX    TMP DP  RH WIND       PRES   REMARKS
PORT LAVACA    CLOUDY    53  46  75 N7        30.08R
VICTORIA       CLOUDY    52  43  71 N5        30.09R
BEEVILLE       FAIR      56  39  53 NE8       30.09R
PLEASANTON     PTCLDY    57  32  38 NE9       30.13R
SAN ANTONIO    CLOUDY    56  29  35 N13       30.14R
$$

...LAREDO AREA OBSERVATIONS...

CITY           SKY/WX    TMP DP  RH WIND       PRES   REMARKS
LAREDO         CLOUDY    58  44  60 MISG        N/A
COTULLA        CLOUDY    54  41  61 N5        30.12R
DEL RIO        CLOUDY    56  33  42 N8        30.16R
MCALLEN        MOCLDY    60  55  83 W6        30.06R
HEBBRONVILLE   DRIZZLE   56  44  63 N7        30.10R
$$

...OTHER TEXAS OBSERVATIONS...

CITY           SKY/WX    TMP DP  RH WIND       PRES   REMARKS
BROWNSVILLE    CLOUDY    65  62  90 N3        30.02R
HOUSTON        CLOUDY    53  45  74 N7        30.10R
COL. STATION   CLOUDY    53  31  42 N14       30.15R
AUSTIN         CLOUDY    54  30  40 N15       30.16R
WACO           PTCLDY    46  27  47 N8        30.20R
FORT WORTH     MOCLDY    45  29  53 N10       30.22R
WICHITA FALLS  CLEAR     36  25  64 W3        30.23R
LUBBOCK        CLOUDY    39  27  62 N9        30.29R
EL PASO        MOCLDY    45  20  36 NE6       30.21R
$$

...MARINE OBSERVATIONS...

STATION/POSITION TIME  SKY/WX   TEMP    WIND        PRES    VSBY  WAVE   SWELL
                                AIR SEA DIR/SP/G                  HT/PER HT/PER
                 (UTC)          (F)     (DEG/KT/KT) (MB)    (MI)  (FT/S) (FT/S)
PORT ARANSAS     NOT AVBL
BUOY 90 E PORT A 0350            69 72   20/ 12/ 14 1015.8          2/ 5
BUOY 200 E PT IS 0450            75 77  170/ 14/ 16 1015.5F         2/ 4
BUOY 15 E GALVES 0350            60 60  350/ 12/ 12 1017.8          1
$$



USA.gov is the U.S. government's official web portal to all federal, state and local government web resources and services.